Location: ??
(35.1714°N, 128.2806°E)
Time: 22:00:12
(UTC+00:00)

Tiangong - Pass Details

Date: 27 June 2021
Orbit: 374 x 385 km, 41.5° (Epoch: 24 July)

Event Time Altitude Azimuth Distance (km) Brightness Sun altitude
Exits shadow 17:27:46 23° 12° (NNE) 846 3.4 -25.2°
Drops below altitude 10° 17:29:58 10° 56° (NE) 1,386 4.7 -25.0°
Sets 17:32:17 0° 70° (ENE) 2,241 5.7 -24.8°
